Simultaneous Nadir Overpasses (SNOs) Predictions

Prediction of SNOs near US between AQUA and NPP Satellite Orbit:

Table of predicted SNOs near US for the next 10.0 days since TLE Epoch: 4/20/2017
Index Date (AQUA) Time (AQUA) AQUA Lat,Lon Date (NPP) Time (NPP) NPP Lat,Lon Distance(km) Time Diff (sec)
1 04/22/2017 10:12:13 26.89,-124.99 04/22/2017 10:05:47 24.99,-126.12 239.85 386
2 04/25/2017 07:18:55 49.93, -76.02 04/25/2017 07:19:56 50.36, -78.11 156.44 61
3 04/25/2017 08:57:48 49.93,-100.74 04/25/2017 09:01:24 50.47,-103.44 200.90 216
4 04/27/2017 18:17:04 49.99, -80.21 04/27/2017 18:10:14 49.72, -81.70 111.22 410
5 04/27/2017 19:55:57 49.98,-104.93 04/27/2017 19:51:42 49.61,-107.03 156.44 255
6 04/27/2017 21:31:04 36.57,-124.98 04/27/2017 21:29:18 36.11,-127.48 229.80 106
7 04/30/2017 09:24:28 20.57,-114.15 04/30/2017 09:16:17 20.67,-114.53 40.84 491




NCC Satellite Simultaneous Nadir Overpasses (SNOs) Prediction Service
